OBJECT J (43188 NORAD) Tracking and Keplerian Element Data

This shows tracking and keplerian element data for the satellite.

Feedback or suggestion? Click here.




ElementValue
Catalog43188
NameOBJECT J
Epoch Orbit3502
Epoch Day266.51358012
Epoch Year2018
RAAN173.6904
Inclination97.7174
Eccentricity0.0010867
Argument of Perigee174.7371
Mean Anonmoly185.3967
Mean Motion14.96507736
Decay Rate1.6E-07
L11 43188U 18014J 18266.51358012 .00000016 00000-0 64746-5 0 9995
L22 43188 97.7174 173.6904 0010867 174.7371 185.3967 14.96507736 35020

Live tracking and technical data element details for OBJECT J (NORAD 43188). OBJECT J can be tracked NOW for your location showing map with azimuth and elevation plus other details from your city location.

Track the satellite on the map from your city or location and see movement details for azimuth, elevation, latitude, longitude, range, height, and movement on the map or in text.







IsCatalogInMostPopularTable: catalog: 43188, numindb: 97
Update: records affected: 1



GetName: 43188 OBJECT J

Hit Count: updated at: Tue, 25 Sep 2018 14:33:02 GMT